DELTA 1 DEB

基本信息
目录编号:
10251
目录名称:
DELTA 1 DEB
国际标识:
1977-065CC
轨道中心:
EARTH
物体状态:
在轨
发射日期:
1977-07-14 UTC
轨道信息
数据来源: 国际轨道数据
星历时间: 2026-09-04T04:03:47+0800
半长轴: 7321.528km
偏心率: 0.066611
轨道倾角: 28.970°
近地点辐角: 70.438°
升交点赤经: 111.985°
平近点角: 296.686°
近地点: 455.696km
远地点: 1431.086km
周期: 103.911分钟
每日圈数: 13.857988
详细信息
发射场:
AFETR
轨道高度:
LEO
数据来源:
AOE Integration Group
参考系:
TEME
时间系统:
UTC
历元类型:
SGP4
2D轨道图
3D轨道图
轨道高度分析图
轨道倾角分析图
轨道综合分析图
查看轨道综合分析图